This demonstration page uses our WeatherBlox Daily Observations layout. Learn more.

Left ArrowRight Arrow

41.55636, -103.73856

Hourly Observations for February 21, 2018

Temp ( °F °C ) Dew Point ( °F °C ) Humidity (%) Winds ( mph kmh ) Pressure ( in mb ) Visibility ( mi km ) Precip ( " mm )
12:53 am 00:53 Clear -7 -21.7 -11 -23.9 82 82 ENE 7 11 30.53 1034 10 16 N/A
1:53 am 01:53 Clear -8 -22.2 -12 -24.4 82 82 E 7 11 30.53 1034 10 16 N/A
2:53 am 02:53 Clear -8 -22.2 -13 -25 78 78 N N/A 30.50 1033 10 16 N/A
3:53 am 03:53 Clear -10 -23.3 -14 -25.6 81 81 N N/A 30.51 1033 10 16 N/A
4:53 am 04:53 Mostly Clear -10 -23.3 -14 -25.6 81 81 NNW 8 13 30.52 1033 10 16 N/A
5:53 am 05:53 Clear -9 -22.8 -13 -25 82 82 SSW 6 9 30.53 1034 10 16 N/A
6:53 am 06:53 Sunny -10 -23.3 -16 -26.7 74 74 N 3 6 30.56 1035 10 16 N/A
7:53 am 07:53 Sunny -5 -20.6 -10 -23.3 79 79 N 3 6 30.59 1036 10 16 N/A
8:53 am 08:53 Sunny 2 -16.7 -4 -20 76 76 N N/A 30.56 1035 10 16 N/A
9:53 am 09:53 Sunny 4 -15.6 -3 -19.4 73 73 E 9 15 30.56 1035 10 16 N/A
10:53 am 10:53 Sunny with Light Snow 9 -12.8 2 -16.7 73 73 E 12 19 30.53 1034 10 16 N/A
11:53 am 11:53 Sunny 18 -7.8 8 -13.3 65 65 ESE 12 19 30.49 1032 10 16 N/A
12:53 pm 12:53 Sunny 22 -5.6 12 -11.1 66 66 E 12 19 30.45 1031 10 16 N/A
1:53 pm 13:53 Sunny 28 -2.2 10 -12.2 47 47 SSE 16 26 30.41 1030 10 16 N/A
2:53 pm 14:53 Sunny 27 -2.8 12 -11.1 53 53 E 14 22 30.41 1030 10 16 N/A
3:20 pm 15:20 Sunny 27 -3 10 -12 50 50 SSE 21 33 30.33 1027 10 16 N/A
3:53 pm 15:53 Sunny 27 -2.8 11 -11.7 51 51 SE 9 15 30.41 1030 10 16 N/A
4:53 pm 16:53 Sunny 24 -4.4 14 -10 65 65 ESE 8 13 30.41 1030 10 16 N/A
5:53 pm 17:53 Clear 16 -8.9 9 -12.8 74 74 E 8 13 30.43 1031 10 16 N/A
6:53 pm 18:53 Clear 18 -7.8 10 -12.2 71 71 ESE 13 20 30.45 1031 10 16 N/A
7:53 pm 19:53 Clear 16 -8.9 9 -12.8 74 74 ESE 12 19 30.45 1031 10 16 N/A
8:53 pm 20:53 Clear 13 -10.6 8 -13.3 81 81 E 9 15 30.43 1031 10 16 N/A
9:53 pm 21:53 Mostly Clear 12 -11.1 6 -14.4 77 77 E 10 17 30.42 1030 10 16 N/A
10:53 pm 22:53 Cloudy 12 -11.1 7 -13.9 80 80 E 6 9 30.39 1029 10 16 N/A
11:53 pm 23:53 Mostly Cloudy 11 -11.7 6 -14.4 81 81 ESE 9 15 30.36 1028 10 16 N/A

Powered by AerisWeather